Weather History for Albion, NE

Change the Weather History Date:

Sunday, April 28, 2013

  Actual Average (KOFK) Record (KOFK)
Temperature  
Mean Temperature 68 °F 54 °F  
Max Temperature 86 °F 67 °F 102 °F (1910)
Min Temperature 49 °F 42 °F 24 °F (1926)
Degree Days  
Heating Degree Days 0 11  
Month to date heating degree days 451  
Since 1 July heating degree days 6400  
Cooling Degree Days 2 1  
Month to date cooling degree days 10  
Year to date cooling degree days 10  
Growing Degree Days 18 (Base 50)    
Moisture  
Dew Point 42 °F    
Average Humidity 48    
Maximum Humidity 84    
Minimum Humidity 14    
Precipitation  
Precipitation 0.00 in 0.10 in 1.38 in (1903)
Month to date precipitation 2.45  
Year to date precipitation 5.57  
Snow  
Snow 0.00 in 0.00 in - ()
Month to date snowfall 2.5  
Since 1 July snowfall 30.4  
Snow Depth -    
Sea Level Pressure  
Sea Level Pressure 29.79 in    
Wind  
Wind Speed 8 mph (South)    
Max Wind Speed 18 mph    
Max Gust Speed 28 mph    
Visibility 10 miles    
Events      
T = Trace of Precipitation, MM = Missing Value Source: NWS Daily Summary

Daily Weather History Graph

Daily Weather History Graph

Search for Another Location

Airport:

Trip Planner

Search our weather history database for the weather conditions in past years. The results will help you decide how hot, cold, wet, or windy it might be!

Date:

Astronomy

Apr. 28, 2013 Rise Set
Actual Time 6:32 AM CDT 8:27 PM CDT
Civil Twilight 6:02 AM CDT 8:57 PM CDT
Nautical Twilight 5:25 AM CDT 9:34 PM CDT
Astronomical Twilight 4:46 AM CDT 10:14 PM CDT
Moon No Moon Rise 8:48 AM CDT (4/28)
Length of Visible Light 14h 55m
Length of Day
13h 55m
Waning Gibbous, 88% of the Moon is Illuminated
Apr 28
Waning Gibbous
May 2
Last Quarter
May 9
New
May 17
First Quarter
May 24
Full

Hourly Weather History & Observations

Time (CDT) Temp. Dew Point Humidity Pressure Visibility Wind Dir Wind Speed Gust Speed Precip Events Conditions
12:15 AM 55.6 °F 43.0 °F 63% 29.91 in 10.0 mi South 5.8 mph - N/A   Clear
12:35 AM 55.2 °F 43.0 °F 63% 29.92 in 10.0 mi South 3.5 mph - N/A   Clear
12:55 AM 54.9 °F 43.0 °F 64% 29.92 in 10.0 mi South 4.6 mph - N/A   Clear
1:15 AM 54.0 °F 43.0 °F 66% 29.92 in 10.0 mi SSE 4.6 mph - N/A   Clear
1:35 AM 52.7 °F 43.2 °F 70% 29.91 in 10.0 mi SE 5.8 mph - N/A   Clear
1:55 AM 51.8 °F 43.2 °F 72% 29.90 in 10.0 mi SSE 6.9 mph - N/A   Clear
2:15 AM 50.7 °F 43.3 °F 76% 29.90 in 10.0 mi SSE 6.9 mph - N/A   Clear
2:35 AM 50.2 °F 43.3 °F 77% 29.89 in 10.0 mi SSE 6.9 mph - N/A   Clear
2:55 AM 50.9 °F 43.9 °F 77% 29.88 in 10.0 mi SE 4.6 mph - N/A   Clear
3:15 AM 51.8 °F 44.6 °F 76% 29.88 in 10.0 mi SE 5.8 mph - N/A   Clear
3:35 AM 51.6 °F 44.8 °F 77% 29.87 in 10.0 mi SE 4.6 mph - N/A   Clear
3:55 AM 52.0 °F 45.1 °F 77% 29.87 in 10.0 mi Calm Calm - N/A   Clear
4:15 AM 52.3 °F 45.5 °F 78% 29.87 in 10.0 mi ESE 3.5 mph - N/A   Clear
4:35 AM 52.0 °F 45.7 °F 79% 29.86 in 10.0 mi SSE 3.5 mph - N/A   Clear
4:55 AM 51.4 °F 45.5 °F 80% 29.86 in 10.0 mi SSE 4.6 mph - N/A   Clear
5:15 AM 51.4 °F 45.5 °F 80% 29.86 in 10.0 mi Calm Calm - N/A   Clear
5:35 AM 51.8 °F 45.9 °F 80% 29.86 in 10.0 mi South 4.6 mph - N/A   Clear
5:55 AM 50.7 °F 45.5 °F 82% 29.85 in 10.0 mi South 5.8 mph - N/A   Clear
6:15 AM 51.4 °F 45.9 °F 81% 29.84 in 10.0 mi South 5.8 mph - N/A   Clear
6:35 AM 49.8 °F 45.3 °F 84% 29.84 in 10.0 mi SE 4.6 mph - N/A   Clear
6:55 AM 50.7 °F 45.7 °F 83% 29.83 in 10.0 mi SE 5.8 mph - N/A   Clear
7:15 AM 51.8 °F 46.6 °F 82% 29.82 in 10.0 mi SE 8.1 mph - N/A   Clear
7:35 AM 53.2 °F 47.5 °F 81% 29.83 in 10.0 mi South 8.1 mph - N/A   Clear
8:15 AM 55.4 °F 48.2 °F 77% 29.83 in 10.0 mi South 6.9 mph - N/A   Clear
8:35 AM 56.8 °F 48.2 °F 73% 29.82 in 10.0 mi South 8.1 mph - N/A   Clear
8:55 AM 57.4 °F 48.2 °F 71% 29.82 in 10.0 mi SSW 12.7 mph - N/A   Clear
9:15 AM 58.6 °F 48.4 °F 69% 29.82 in 10.0 mi SSW 8.1 mph - N/A   Clear
9:35 AM 60.4 °F 48.4 °F 64% 29.80 in 10.0 mi SSW 13.8 mph - N/A   Clear
9:55 AM 62.1 °F 48.6 °F 61% 29.80 in 10.0 mi SSW 10.4 mph - N/A   Clear
10:15 AM 65.5 °F 48.7 °F 55% 29.80 in 10.0 mi SSW 9.2 mph 18.4 mph N/A   Clear
10:35 AM 66.7 °F 48.2 °F 51% 29.79 in 10.0 mi South 12.7 mph - N/A   Clear
10:55 AM 68.4 °F 47.7 °F 48% 29.79 in 10.0 mi South 10.4 mph - N/A   Clear
11:15 AM 70.5 °F 47.7 °F 44% 29.79 in 10.0 mi South 10.4 mph - N/A   Clear
11:35 AM 72.0 °F 47.1 °F 41% 29.78 in 10.0 mi South 10.4 mph - N/A   Clear
11:55 AM 74.3 °F 45.9 °F 36% 29.77 in 10.0 mi SSW 13.8 mph - N/A   Clear
12:15 PM 77.0 °F 45.9 °F 33% 29.77 in 10.0 mi SSW 10.4 mph - N/A   Clear
12:35 PM 78.1 °F 44.4 °F 30% 29.77 in 10.0 mi SSW 11.5 mph 16.1 mph N/A   Clear
12:55 PM 77.9 °F 44.2 °F 30% 29.76 in 10.0 mi South 9.2 mph 18.4 mph N/A   Clear
1:15 PM 79.7 °F 42.4 °F 27% 29.75 in 10.0 mi South 10.4 mph - N/A   Clear
1:35 PM 80.6 °F 42.4 °F 26% 29.74 in 10.0 mi South 11.5 mph - N/A   Clear
1:55 PM 82.0 °F 41.9 °F 24% 29.73 in 10.0 mi SSE 10.4 mph - N/A   Clear
2:15 PM 82.0 °F 40.5 °F 23% 29.72 in 10.0 mi SSE 10.4 mph 16.1 mph N/A   Clear
2:35 PM 84.9 °F 38.8 °F 20% 29.72 in 10.0 mi South 13.8 mph 18.4 mph N/A   Clear
2:55 PM 85.5 °F 35.2 °F 17% 29.72 in 10.0 mi South 13.8 mph 19.6 mph N/A   Clear
3:15 PM 85.8 °F 34.2 °F 16% 29.71 in 10.0 mi South 12.7 mph 17.3 mph N/A   Clear
3:35 PM 86.0 °F 35.8 °F 17% 29.70 in 10.0 mi SSE 10.4 mph 16.1 mph N/A   Clear
3:55 PM 85.5 °F 36.0 °F 17% 29.70 in 10.0 mi South 12.7 mph 19.6 mph N/A   Clear
4:15 PM 85.8 °F 31.6 °F 14% 29.69 in 10.0 mi SSW 9.2 mph 18.4 mph N/A   Clear
4:35 PM 85.6 °F 32.2 °F 15% 29.68 in 10.0 mi South 10.4 mph - N/A   Clear
4:55 PM 85.5 °F 32.9 °F 15% 29.67 in 10.0 mi South 12.7 mph 16.1 mph N/A   Clear
5:15 PM 85.5 °F 32.4 °F 15% 29.67 in 10.0 mi SSW 9.2 mph - N/A   Clear
5:35 PM 84.7 °F 34.2 °F 16% 29.67 in 10.0 mi SSW 10.4 mph - N/A   Clear
5:55 PM 84.2 °F 34.7 °F 17% 29.67 in 10.0 mi SW 11.5 mph - N/A   Clear
6:15 PM 83.7 °F 34.3 °F 17% 29.67 in 10.0 mi SW 9.2 mph - N/A   Clear
6:35 PM 82.8 °F 35.6 °F 18% 29.67 in 10.0 mi SSW 6.9 mph - N/A   Clear
6:55 PM 82.4 °F 37.6 °F 20% 29.67 in 10.0 mi SSW 5.8 mph - N/A   Clear
7:35 PM 77.5 °F 37.6 °F 24% 29.70 in 10.0 mi North 17.3 mph 24.2 mph N/A   Clear
7:55 PM 75.9 °F 37.2 °F 25% 29.71 in 10.0 mi North 16.1 mph 21.9 mph N/A   Clear
8:15 PM 74.8 °F 35.8 °F 24% 29.73 in 10.0 mi North 10.4 mph 18.4 mph N/A   Clear
8:35 PM 72.7 °F 36.9 °F 27% 29.75 in 10.0 mi North 18.4 mph 27.6 mph N/A   Scattered Clouds
8:55 PM 70.7 °F 36.9 °F 29% 29.77 in 10.0 mi North 12.7 mph 24.2 mph N/A   Scattered Clouds
9:15 PM 68.9 °F 37.8 °F 32% 29.78 in 10.0 mi NNE 13.8 mph 19.6 mph N/A   Scattered Clouds
9:35 PM 68.2 °F 38.5 °F 34% 29.79 in 10.0 mi North 11.5 mph 18.4 mph N/A   Scattered Clouds
9:55 PM 66.2 °F 39.7 °F 38% 29.80 in 10.0 mi North 10.4 mph - N/A   Clear
10:15 PM 65.1 °F 40.1 °F 40% 29.81 in 10.0 mi NNE 11.5 mph - N/A   Clear
10:35 PM 63.5 °F 39.7 °F 42% 29.81 in 10.0 mi NNE 11.5 mph - N/A   Clear
10:55 PM 62.8 °F 39.2 °F 42% 29.81 in 10.0 mi North 9.2 mph - N/A   Clear
11:15 PM 63.3 °F 38.3 °F 40% 29.81 in 10.0 mi North 8.1 mph - N/A   Clear
11:35 PM 62.4 °F 38.5 °F 41% 29.80 in 10.0 mi NNE 9.2 mph - N/A   Clear
11:55 PM 62.1 °F 38.7 °F 42% 29.82 in 10.0 mi North 9.2 mph - N/A   Scattered Clouds